DECAYED

STARLINK-2013, 47636 (Decayed)

Orbit data source: Space-Track

STARLINK-2013, 47636 was a payload satellite owned by SpaceX/Seattle (US) in LEO that was launched on Tue, 16 Feb 2021 UTC via an FALCON 9 launch vehicle from the Air Force Eastern Test Range (AFETR). Payload-class satellites include a variety of spacecraft equipped with specific instruments for various scientific and technological missions. These include communications satellites like Starlink; space stations such as the ISS; scientific satellites like the Hubble; Earth observation satellites from companies like Planet Labs, Umbra, and HawkEye 360; GPS; miniature CubeSats for education and research; and military/defense satellites.

Not visible in the next 10 days
Identifier
47636, 2021-012S
Orbit
Decayed
Country
Flag of USUS
Related business
Manufacturer
SpaceX/Seattle
Mission
Decayed Commercial Communications
Bus & Motor
STARLINK, Unknown motor
Mass
260 kg wet, ~248 kg dry
Launch date (UTC)
2021-02-16 (5 years ago)
Launch vehicle
FALCON 9
Launch site
Air Force Eastern Test Range (AFETR)
Object type
Payload
Rocket body
Debris
Shape & HBR
Box + 1 Pan, 10.1 m
Radar Cross Section
13.562 m², Large (>1 m²)

Expand to show TLE details & history
Last TLE update: 9 months ago

TLE from 9 months ago
0 STARLINK-2013
1 47636U 21012S   25082.05512627  .21062461  12571-4  57487-3 0  9993
2 47636  53.0197 135.4573 0005985 307.7036 126.9505 16.45253699227519
Epoch: 2025-03-23T01:19Z
TLE epoch observation values (Epoch: 2025-03-23T01:19:22.909Z)
Latitude
50.5609°
Longitude
0.35174°
Altitude
160.097 km
Speed
7.815 km/s
True Right ascension
13h 23m 57s
True Declination
50° 22' 36"
Sunlit
Object was in full shadow at epoch
Visualization orbit readout
Latitude
Unknown
Longitude
Unknown
Altitude
Unknown
Speed
Unknown
Apparent Right ascension
Unknown
Apparent Declination
Unknown
Sunlit
N/A
Visualization observer readout
Local Sidereal Time
11:57:24
Azimuth
Unknown
Elevation
Unknown
Doppler factor
Unknown
Orbital elements
Apogee altitude
156.065 km
Perigee altitude
148.248 km
Semi-major axis
6,530.294 km
Eccentricity
0.0006
Inclination
53.0197°
RAAN
135.4573°
Arg. of periapsis
307.7036°
True anomaly
127.00528°
Mean anomaly
126.9505°
Eccentric anomaly
126.97789°
Mean motion
4.11286 °/min
Orbital period
87.53 mins
BSTAR
0.00057487
Loading maneuver chart data...
Computing Atmospheric mass density...
Loading historical data...
Loading historical data...
Loading historical data...
Loading historical data...
Loading historical data...
Loading historical data...
Loading historical data...

Documentation

Showing up to 5 results
|